Hourly Data Report for October 29, 2014

All times are specified in Local Standard Time (LST). Add 1 hour to adjust for Daylight Saving Time where and when it is observed.

FREDERICTON
NEW BRUNSWICK

45°52'08.000" N
66°32'14.000" W
20.70 m
8101505
71700
YFC

Download Data

Hourly Data (October 2014)
Hourly Data Report for October 29, 2014
Temp Definition
°C
Dew Point Temp Definition
°C
Rel Hum Definition
%
Wind Dir Definition
10's deg

Wind Spd Definition
km/h
Visibility Definition
km
Stn Press Definition
kPa
Hmdx Definition


Wind Chill Definition


Weather Definition


TIME
00:00 Legend Double Dagger 6.8 4.9 88 14 5 16.1 101.51     LegendNANA
01:00 Legend Double Dagger 7.3 5.3 87 8 8 16.1 101.41     LegendNANA
02:00 Legend Double Dagger 7.0 5.3 89 8 9 16.1 101.38     LegendNANA
03:00 Legend Double Dagger 7.5 5.8 89 7 8 16.1 101.33     LegendNANA
04:00 Legend Double Dagger 7.5 6.0 90 7 8 16.1 101.26     LegendNANA
05:00 Legend Double Dagger 8.1 6.3 88 9 8 16.1 101.21     LegendNANA
06:00 Legend Double Dagger 8.6 6.7 88 6 8 16.1 101.14     LegendNANA
07:00 Legend Double Dagger 9.0 7.0 87 6 9 16.1 101.06     LegendNANA
08:00 Legend Double Dagger 9.5 7.6 88 9 11 16.1 100.96     LegendNANA
09:00 Legend Double Dagger 11.2 10.0 92 13 9 16.1 100.88     LegendNANA
10:00 Legend Double Dagger 12.5 11.1 91 14 8 16.1 100.78     LegendNANA
11:00 Legend Double Dagger 13.5 12.4 93 16 8 16.1 100.71     Rain
12:00 Legend Double Dagger 14.7 13.3 91 20 13 16.1 100.67     LegendNANA
13:00 Legend Double Dagger 15.9 13.4 85 18 15 16.1 100.51     LegendNANA
14:00 Legend Double Dagger 16.0 13.1 83 20 17 16.1 100.46     LegendNANA
15:00 Legend Double Dagger 15.2 13.1 87 18 15 16.1 100.45     LegendNANA
16:00 Legend Double Dagger 15.1 13.2 88 17 5 16.1 100.44     LegendNANA
17:00 Legend Double Dagger 14.6 13.0 90 18 9 16.1 100.42     LegendNANA
18:00 Legend Double Dagger 13.9 13.3 96 18 11 6.4 100.46     Heavy Rain,Fog
19:00 Legend Double Dagger 13.7 13.1 96 17 9 11.3 100.37     LegendNANA
20:00 Legend Double Dagger 13.6 13.1 97 18 11 9.7 100.34     Fog
21:00 Legend Double Dagger 13.5 13.0 97 19 11 4.8 100.38     Rain,Fog
22:00 Legend Double Dagger 13.4 13.1 98 20 9 4.8 100.32     Rain,Fog
23:00 Legend Double Dagger 13.1 12.8 98 24 11 6.4 100.33     Rain,Fog

Notes on Data Quality.

Legend

  • E = Estimated
  • M = Missing
  • NA = Not Available
  • ‡ = Partner data that is not subject to review by the National Climate Archives
Date modified: